CW8826 Weather Reports


Display with metric or nautical units.
time (UTC)temp
F
wind
direction
speed
MPH
gust
MPH
rain 1hr
in
rain 24hr
in
rain mn
in
humidity
%
barometer
mb
20260902002516 80 203 7.0 17.0 0.00 0.00 0.00 33 1016.1
20260902001516 80 225 4.0 9.0 0.00 0.00 0.00 33 1016.3
20260902000516 81 135 7.0 16.0 0.00 0.00 0.00 32 1016.2
20260901235516 80 203 5.0 15.0 0.00 0.00 0.00 33 1016.3
20260901234536 80 158 4.0 10.0 0.00 0.00 0.00 33 1016.4
20260901233516 80 135 5.0 11.0 0.00 0.00 0.00 33 1016.5
20260901232517 79 203 8.0 19.0 0.00 0.00 0.00 33 1016.2
20260901231516 80 203 6.0 15.0 0.00 0.00 0.00 33 1016.3
20260901230516 80 135 7.0 15.0 0.00 0.00 0.00 34 1016.5
20260901225516 79 158 6.0 15.0 0.00 0.00 0.00 33 1016.9
20260901224516 79 225 4.0 10.0 0.00 0.00 0.00 36 1017.0
20260901223536 78 225 7.0 17.0 0.00 0.00 0.00 36 1016.9
20260901222516 78 180 6.0 13.0 0.00 0.00 0.00 35 1016.7
20260901221516 79 135 8.0 17.0 0.00 0.00 0.00 35 1017.1
20260901220516 79 135 6.0 13.0 0.00 0.00 0.00 36 1017.1
20260901215516 79 225 6.0 17.0 0.00 0.00 0.00 35 1017.2
20260901214516 79 203 7.0 18.0 0.00 0.00 0.00 34 1017.3
20260901213516 79 225 7.0 16.0 0.00 0.00 0.00 37 1017.7
20260901212516 79 225 7.0 19.0 0.00 0.00 0.00 37 1018.0
20260901211536 78 180 5.0 12.0 0.00 0.00 0.00 36 1018.1
20260901210516 79 225 8.0 17.0 0.00 0.00 0.00 36 1018.2
20260901205517 78 225 5.0 13.0 0.00 0.00 0.00 35 1017.9
20260901204516 78 180 7.0 14.0 0.00 0.00 0.00 36 1018.3
20260901203516 78 135 7.0 15.0 0.00 0.00 0.00 39 1018.0
20260901202516 77 225 7.0 16.0 0.00 0.00 0.00 40 1018.7
20260901201516 76 248 6.0 14.0 0.00 0.00 0.00 40 1018.8
20260901200516 76 225 5.0 12.0 0.00 0.00 0.00 40 1019.0
20260901195516 76 225 5.0 13.0 0.00 0.00 0.00 40 1019.2
20260901194517 75 225 4.0 10.0 0.00 0.00 0.00 40 1019.1
20260901193516 75 225 6.0 15.0 0.00 0.00 0.00 40 1019.3
20260901192536 75 203 5.0 15.0 0.00 0.00 0.00 39 1019.3
20260901191517 75 225 5.0 15.0 0.00 0.00 0.00 39 1019.6
20260901190516 75 135 6.0 11.0 0.00 0.00 0.00 40 1019.6
20260901185536 74 225 8.0 16.0 0.00 0.00 0.00 40 1019.6
20260901184516 74 135 6.0 15.0 0.00 0.00 0.00 42 1019.6
20260901183516 74 203 4.0 9.0 0.00 0.00 0.00 44 1019.5
20260901182516 73 158 2.0 5.0 0.00 0.00 0.00 47 1019.6
20260901181516 73 158 3.0 8.0 0.00 0.00 0.00 47 1019.8
20260901180517 73 225 5.0 16.0 0.00 0.00 0.00 46 1019.8
20260901175536 72 113 3.0 8.0 0.00 0.00 0.00 50 1019.5
20260901174516 72 135 1.0 6.0 0.00 0.00 0.00 50 1019.6
20260901173517 72 203 1.0 5.0 0.00 0.00 0.00 50 1019.6
20260901172516 72 135 1.0 7.0 0.00 0.00 0.00 51 1019.6
20260901171537 71 0.0 2.0 0.00 0.00 0.00 51 1019.7
20260901170516 71 248 1.0 3.0 0.00 0.00 0.00 51 1019.7
20260901165536 71 270 1.0 5.0 0.00 0.00 0.00 51 1019.4
20260901164516 71 158 1.0 4.0 0.00 0.00 0.00 54 1019.4
20260901163516 69 248 1.0 6.0 0.00 0.00 0.00 54 1019.0
20260901162516 69 135 2.0 4.0 0.00 0.00 0.00 54 1019.0
20260901161516 68 225 2.0 6.0 0.00 0.00 0.00 57 1018.8
20260901160516 67 315 2.0 4.0 0.00 0.00 0.00 56 1018.6
20260901155516 67 0 1.0 5.0 0.00 0.00 0.00 58 1018.7
20260901154516 66 0.0 1.0 0.00 0.00 0.00 59 1018.7
20260901153516 65 90 2.0 5.0 0.00 0.00 0.00 61 1018.5
20260901152516 64 0.0 1.0 0.00 0.00 0.00 62 1018.5
20260901151516 62 0.0 0.0 0.00 0.00 0.00 64 1018.1
20260901150516 61 0.0 0.0 0.00 0.00 0.00 64 1018.0
20260901145516 60 0.0 0.0 0.00 0.00 0.00 68 1017.8
20260901144516 60 0.0 0.0 0.00 0.00 0.00 67 1017.7
20260901143516 60 0.0 0.0 0.00 0.00 0.00 65 1017.6
20260901142536 60 0.0 0.0 0.00 0.00 0.00 65 1017.5
20260901141517 59 0.0 0.0 0.00 0.00 0.00 64 1017.3
20260901140516 59 0.0 0.0 0.00 0.00 0.00 67 1017.4
20260901135516 59 0.0 0.0 0.00 0.00 0.00 67 1017.7
20260901134556 59 0.0 0.0 0.00 0.00 0.00 67 1017.6
20260901133516 60 0.0 0.0 0.00 0.00 0.00 64 1017.5
20260901132516 59 0.0 0.0 0.00 0.00 0.00 63 1017.4
20260901131516 59 0.0 0.0 0.00 0.00 0.00 63 1017.3
20260901130516 60 90 1.0 3.0 0.00 0.00 0.00 61 1017.0
20260901125516 59 0.0 0.0 0.00 0.00 0.00 62 1017.0
20260901124516 59 0.0 2.0 0.00 0.00 0.00 63 1017.0
20260901123516 59 90 2.0 4.0 0.00 0.00 0.00 62 1016.9
20260901122516 60 90 1.0 5.0 0.00 0.00 0.00 57 1017.3
20260901121516 61 113 4.0 9.0 0.00 0.00 0.00 57 1017.7
20260901120516 60 68 3.0 8.0 0.00 0.00 0.00 59 1017.3
20260901115516 61 113 7.0 11.0 0.00 0.00 0.00 56 1017.4
20260901114516 60 113 4.0 11.0 0.00 0.00 0.00 60 1017.3
20260901113516 60 113 4.0 9.0 0.00 0.00 0.00 59 1017.3
20260901112536 59 90 3.0 6.0 0.00 0.00 0.00 62 1018.3
20260901111556 60 90 3.0 8.0 0.00 0.00 0.00 61 1018.4
20260901110516 59 113 1.0 6.0 0.00 0.00 0.00 63 1018.5
20260901105516 60 68 1.0 4.0 0.00 0.00 0.00 62 1019.8
20260901104516 61 90 4.0 8.0 0.00 0.00 0.00 58 1019.7
20260901103516 61 113 6.0 13.0 0.00 0.00 0.00 58 1019.8
20260901102516 60 113 3.0 9.0 0.00 0.00 0.00 62 1019.7
20260901101516 59 113 2.0 4.0 0.00 0.00 0.00 66 1020.0
20260901100516 59 113 6.0 11.0 0.00 0.00 0.00 65 1019.9
20260901095516 58 90 2.0 4.0 0.00 0.00 0.00 71 1019.9
20260901094516 58 90 1.0 3.0 0.00 0.00 0.00 73 1020.0
20260901093516 58 90 1.0 3.0 0.00 0.00 0.00 73 1019.9
20260901092516 59 90 1.0 2.0 0.00 0.00 0.00 72 1019.9
20260901091516 60 90 2.0 7.0 0.00 0.00 0.00 69 1020.0
20260901090516 60 113 5.0 10.0 0.00 0.00 0.00 68 1020.1
20260901085516 58 113 1.0 2.0 0.00 0.00 0.00 75 1019.9
20260901084516 59 0.0 0.0 0.00 0.00 0.00 74 1019.9
20260901083516 59 113 1.0 3.0 0.00 0.00 0.00 75 1020.0
20260901082516 59 0.0 1.0 0.00 0.00 0.00 74 1020.1
20260901081516 60 0.0 1.0 0.00 0.00 0.00 73 1020.1
20260901080516 60 0.0 1.0 0.00 0.00 0.00 73 1020.1
20260901075516 60 113 2.0 3.0 0.00 0.00 0.00 72 1019.8
20260901074536 61 0.0 0.0 0.00 0.00 0.00 69 1020.2
20260901073536 61 113 1.0 2.0 0.00 0.00 0.00 68 1020.1
20260901072516 61 113 1.0 3.0 0.00 0.00 0.00 68 1020.1
20260901071516 61 180 1.0 3.0 0.00 0.00 0.00 67 1019.9
20260901070516 61 158 1.0 2.0 0.00 0.00 0.00 67 1020.1
20260901065536 61 113 2.0 4.0 0.00 0.00 0.00 68 1020.1
20260901064516 62 0.0 0.0 0.00 0.00 0.00 67 1020.4
20260901063516 62 0.0 0.0 0.00 0.00 0.00 65 1020.2
20260901062536 62 270 1.0 4.0 0.00 0.00 0.00 63 1019.6
20260901061516 63 45 4.0 9.0 0.00 0.00 0.00 61 1019.7
20260901060516 61 90 6.0 9.0 0.00 0.00 0.00 67 1019.3
20260901055517 60 113 4.0 9.0 0.00 0.00 0.00 72 1019.1
20260901054517 60 90 1.0 4.0 0.00 0.00 0.00 75 1019.2
20260901053517 61 248 1.0 4.0 0.00 0.00 0.00 73 1019.7
20260901052516 61 0.0 0.0 0.00 0.00 0.00 72 1018.9
20260901051516 61 0.0 0.0 0.00 0.00 0.00 72 1019.1
20260901050517 61 0.0 2.0 0.00 0.00 0.00 73 1019.2
20260901045517 61 90 4.0 10.0 0.00 0.00 0.00 73 1019.5
20260901044516 61 113 1.0 3.0 0.00 0.00 0.00 75 1019.6
20260901043516 60 0.0 3.0 0.00 0.00 0.00 75 1019.6
20260901042517 59 113 2.0 6.0 0.00 0.00 0.00 78 1019.0
20260901041516 60 0.0 3.0 0.00 0.00 0.00 78 1019.3
20260901040516 60 0.0 0.0 0.00 0.00 0.00 79 1019.1
20260901035536 60 0.0 0.0 0.00 0.00 0.00 78 1018.9
20260901034516 60 0.0 0.0 0.00 0.00 0.00 77 1019.0
20260901033516 60 135 1.0 3.0 0.00 0.00 0.00 77 1019.1
20260901032517 60 135 1.0 3.0 0.00 0.00 0.00 78 1018.4
20260901031517 60 158 3.0 7.0 0.00 0.00 0.00 77 1018.1
20260901030536 62 135 4.0 7.0 0.00 0.00 0.00 73 1018.0
20260901025516 62 90 1.0 4.0 0.00 0.00 0.00 70 1017.5
20260901024537 62 45 5.0 11.0 0.00 0.00 0.00 68 1017.2
20260901023516 61 113 1.0 6.0 0.00 0.00 0.00 74 1016.9
20260901022517 61 23 2.0 3.0 0.00 0.00 0.00 75 1017.2
20260901021516 61 0.0 0.0 0.00 0.00 0.00 75 1017.5
20260901020517 61 0.0 3.0 0.00 0.00 0.00 74 1017.7
20260901015536 62 23 2.0 6.0 0.00 0.00 0.00 70 1018.1
20260901014516 62 315 1.0 5.0 0.00 0.00 0.00 70 1018.1
20260901013536 63 45 1.0 4.0 0.00 0.00 0.00 67 1018.3
20260901012516 63 68 4.0 7.0 0.00 0.00 0.00 69 1018.1
20260901011516 63 248 1.0 5.0 0.00 0.00 0.00 69 1018.3
20260901010516 63 225 1.0 4.0 0.00 0.00 0.00 69 1018.5
20260901005516 63 248 1.0 4.0 0.00 0.00 0.00 69 1018.7
20260901004516 64 248 2.0 6.0 0.00 0.00 0.00 66 1018.9
20260901003516 65 225 4.0 9.0 0.00 0.00 0.00 61 1018.8